Location: Fornova de Taro
(44.7000°N, 10.1000°E)
Time: 19:34:19
(UTC+00:00)

Lacrosse 4 Rocket - Pass Details

Date: 26 May 2022
Orbit: 541 x 611 km, 68.0° (Epoch: 02 July)

Event Time Altitude Azimuth Distance (km) Brightness Sun altitude
Rises 03:03:07 0° 189° (S) 2,814 4.5 -6.4°
Reaches altitude 10° 03:05:28 10° 181° (S) 1,906 3.7 -6.1°
Maximum altitude 03:09:26 38° 113° (ESE) 893 2.7 -5.5°
Drops below altitude 10° 03:13:20 10° 45° (NE) 1,879 5.9 -5.0°
Sets 03:15:38 0° 38° (NE) 2,768 6.7 -4.6°
